VK5KX Weather Reports


Display with metric or nautical units.
time (UTC)temp
F
wind
direction
speed
MPH
gust
MPH
rain 1hr
in
rain 24hr
in
rain mn
in
humidity
%
barometer
mb
20260503220055 59 232 3.0 8.0 0.01 0.17 0.15 92 1013.0
20260503214601 59 228 1.0 4.0 0.01 0.17 0.15 91 1012.7
20260503213052 58 249 1.0 4.0 0.01 0.17 0.15 91 1012.6
20260503211554 58 209 0.0 4.0 0.00 0.17 0.14 91 1012.6
20260503210050 58 212 1.0 6.0 0.02 0.17 0.14 91 1012.5
20260503204557 58 221 1.0 4.0 0.02 0.17 0.14 91 1012.4
20260503203051 58 230 2.0 5.0 0.02 0.17 0.14 91 1012.2
20260503201548 58 265 0.0 5.0 0.03 0.17 0.14 90 1012.2
20260503200048 58 232 1.0 6.0 0.04 0.15 0.13 90 1011.9
20260503194548 58 180 1.0 6.0 0.03 0.14 0.12 89 1011.9
20260503193105 59 233 3.0 8.0 0.03 0.14 0.12 89 1011.9
20260503191550 59 256 3.0 9.0 0.02 0.13 0.11 87 1011.7
20260503190059 59 220 3.0 11.0 0.00 0.11 0.09 87 1011.6
20260503184543 59 243 1.0 9.0 0.00 0.11 0.09 88 1011.5
20260503183055 58 169 1.0 8.0 0.00 0.11 0.09 89 1011.5
20260503181540 58 176 2.0 5.0 0.00 0.11 0.09 90 1011.5
20260503180050 57 186 1.0 5.0 0.00 0.11 0.09 91 1011.5
20260503174535 57 256 1.0 8.0 0.02 0.11 0.09 91 1011.7
20260503173039 57 236 0.0 5.0 0.06 0.11 0.09 92 1011.8
20260503171540 57 234 1.0 5.0 0.07 0.11 0.09 92 1011.8
20260503081620 62 215 2.0 11.0 0.00 0.00 0.00 75 1011.3
20260503080104 62 240 4.0 13.0 0.00 0.00 0.00 74 1011.1
20260503071609 62 265 2.0 5.0 0.00 0.02 0.00 74 1011.2
20260503060103 65 213 4.0 11.0 0.00 0.05 0.00 58 1010.8
20260503054557 67 241 4.0 13.0 0.00 0.05 0.00 59 1010.7
20260503053053 66 200 4.0 17.0 0.00 0.05 0.00 56 1010.7
20260503051558 66 183 4.0 11.0 0.00 0.08 0.00 60 1010.7
20260503050051 67 260 4.0 15.0 0.00 0.08 0.00 56 1010.7
20260503044550 66 206 5.0 14.0 0.00 0.08 0.00 58 1010.6
20260503043052 66 275 5.0 11.0 0.00 0.08 0.00 57 1010.6
20260503041548 67 234 6.0 16.0 0.00 0.10 0.00 58 1010.6
20260503040048 66 213 6.0 15.0 0.00 0.10 0.00 57 1010.9
20260503034545 65 208 5.0 15.0 0.00 0.10 0.00 60 1011.1
20260503033046 65 223 6.0 16.0 0.00 0.10 0.00 63 1011.2
20260503031541 64 155 4.0 13.0 0.00 0.13 0.00 64 1011.2
20260503030039 64 156 5.0 13.0 0.00 0.13 0.00 67 1011.2
20260503024540 63 203 3.0 11.0 0.00 0.13 0.00 70 1011.4
20260503023039 64 189 3.0 11.0 0.00 0.13 0.00 66 1011.6
20260503021545 64 246 4.0 14.0 0.00 0.13 0.00 67 1011.7
20260503020046 64 270 7.0 18.0 0.00 0.13 0.00 64 1011.8
20260503014603 64 207 5.0 14.0 0.00 0.13 0.00 64 1011.8
20260503013038 63 174 7.0 16.0 0.00 0.13 0.00 65 1011.8
20260503011540 63 241 5.0 18.0 0.00 0.13 0.00 65 1011.9
20260503010033 62 304 3.0 14.0 0.00 0.13 0.00 70 1012.0
20260503004529 61 251 6.0 15.0 0.00 0.13 0.00 71 1012.1
20260503003023 61 223 5.0 12.0 0.00 0.13 0.00 74 1012.1
20260503001524 60 204 4.0 12.0 0.00 0.13 0.00 75 1012.2
20260503000018 60 243 4.0 10.0 0.00 0.13 0.00 76 1012.3
20260502234516 59 249 3.0 10.0 0.00 0.13 0.00 78 1012.3
20260502233014 58 270 5.0 12.0 0.00 0.13 0.00 79 1012.4
20260502231515 58 280 4.0 10.0 0.00 0.13 0.00 81 1012.3
20260502230012 57 270 4.0 9.0 0.00 0.13 0.00 82 1012.3
20260502224507 56 253 3.0 9.0 0.00 0.13 0.00 84 1012.3
20260502223005 56 258 4.0 9.0 0.00 0.13 0.00 86 1012.2
20260502221503 55 306 1.0 8.0 0.00 0.13 0.00 87 1012.2